#timestamp,LO_Frequency,Hit,StdDev 
1621956915.8,286047016.7,P
1621956935.7,286047015.3,P
1621956955.5,286047014.1,P
1621956975.4,286047014.4,Y
1621956995.2,286047000.4,P
1621957015.0,286047000.3,N
1621957015.9,286047000.3,N
1621957035.8,286047000.8,N
1621957055.6,286047000.0,N
1621957075.4,286047000.3,N
1621957095.3,286047002.3,N
1621957115.1,286047002.2,N
1621957135.9,286047001.4,N
1621957155.7,286047004.0,N
1621957175.5,286047004.3,N
1621957195.4,286047004.0,N
1621957215.2,286047003.9,N
1621957235.0,286047003.9,N
1621957235.9,286047003.9,N
1621957255.8,286047003.7,N
1621957275.6,286047004.0,N
1621957295.5,286047004.2,N
1621957315.3,286047001.7,N
1621957335.1,286047001.5,N
1621957355.9,286047003.8,N
1621957375.7,286047005.9,N
1621957395.5,286047001.3,N
1621957415.4,286047004.1,N
1621957435.2,286047004.0,N
1621957455.1,286047004.2,N
1621957456.0,286047004.2,N
1621957475.8,286047003.5,N
1621957495.6,286047004.2,N
1621957515.5,286047001.4,N
1621957535.3,286047004.0,N
1621957555.1,286047003.5,N
1621957575.9,286047003.8,N
1621957595.7,286047003.7,N
1621957615.6,286047004.3,Y
1621957635.4,286047000.9,P
1621957655.2,286047001.1,N
1621957675.1,286047000.3,N
1621957676.0,286047000.3,N
1621957695.8,286047000.8,N
1621957715.7,286046998.6,N
1621957735.5,286047001.1,N
1621957755.3,286047000.8,N
1621957775.2,286047000.5,N
1621957795.0,286047002.7,N
1621957795.9,286047002.7,N
1621957815.8,286047001.6,N
1621957835.6,286047001.9,N
1621957855.4,286047004.3,Y
1621957875.3,286047002.3,P
1621957895.1,286046999.7,N
1621957915.8,286047000.4,N
1621957935.7,286047001.9,N
1621957955.5,286047002.7,N
1621957975.4,286047001.7,N
1621957995.2,286047001.4,N
1621958015.0,286047003.8,Y
1621958015.9,286047003.8,P
1621958035.8,286047000.1,N
1621958055.6,286047002.0,N
1621958075.4,286047002.6,N
1621958095.3,286046999.9,N
1621958115.1,286047001.6,N
1621958135.9,286047002.2,N
1621958155.7,286047002.1,N
1621958175.5,286046999.7,N
1621958195.4,286047003.9,Y
1621958215.2,286047002.3,P
1621958235.0,286047002.7,P
1621958235.9,286047002.7,P
1621958255.8,286047001.6,Y
1621958275.6,286046999.2,P
1621958295.5,286046999.5,N
1621958315.3,286047001.2,N
1621958335.1,286047000.9,N
1621958355.9,286046999.4,N
1621958375.7,286046998.6,N
1621958395.6,286046998.8,N
